Location: Apple Creek Valley School
(37.5703°N, 89.7479°W)
Time: 15:18:48
(UTC+00:00)

Daily predictions for brighter satellites

Satellite Brightness Start Highest point End
(mag) Time Altitude Azimuth Time Altitude Azimuth Time Altitude Azimuth
Meteor PRIRODA 3.6 12:02:26 10° N 12:06:00 60° WNW 12:09:34 10° SSW
Cosmos 1092 Rocket 4.1 12:00:04 10° S 12:06:18 83° E 12:12:37 10° N
CZ-4B R/B 2.5 12:03:18 10° N 12:06:52 69° WNW 12:10:28 10° SSW
Cosmos 1805 Rocket 3.7 12:04:20 10° S 12:08:42 79° E 12:13:05 10° N
H-2A R/B 2.5 12:05:14 10° SSE 12:09:26 65° ENE 12:13:46 10° N
SMAP 3.5 12:06:42 10° NNE 12:11:21 68° E 12:15:59 10° S
SL-27 R/B 2.8 12:09:18 10° NNW 12:12:42 44° WSW 12:16:03 10° S
NOAA 11 4.4 12:08:53 10° N 12:14:08 48° WNW 12:19:23 10° SW
Cosmos 1340 Rocket 3.1 12:11:05 10° SSW 12:14:50 43° WNW 12:18:40 10° N
Cosmos 1515 3.8 12:11:54 10° N 12:15:43 82° E 12:19:30 10° S
CZ-2C R/B 3.1 12:13:56 10° N 12:18:45 54° WNW 12:23:48 10° SSW
SL-8 R/B 3.8 12:16:55 10° WNW 12:21:36 68° SW 12:26:20 10° SE
ATLAS 5 CENTAUR R/B 2.5 12:22:06 10° W 12:25:09 22° NW 12:28:27 10° N
H-2A R/B 3.3 12:20:41 10° NNE 12:25:23 45° E 12:30:07 10° S
Cosmos 1666 3.9 12:26:51 10° SSE 12:30:29 46° E 12:34:07 10° NNE
Okean O Rocket 4.2 12:26:57 10° NE 12:30:36 25° E 12:34:13 10° SSE
NOSS 2 (A) 3.9 12:28:53 10° NNW 12:31:27 88° WSW 12:33:49 10° SSE
USA 32 4.1 12:28:28 10° NNW 12:33:39 62° W 12:38:47 10° S
Meteor 1-27 Rocket 4.2 12:28:41 10° NNW 12:33:59 41° W 12:39:20 10° SSW
CZ-4B R/B 1.9 12:30:50 10° SSE 12:34:07 60° ENE 12:37:21 10° N
NOAA 12 4.1 22:57:28 10° SSE 23:02:45 71° ENE 23:08:03 10° N
Cosmos 1697 Rocket 2.7 22:58:33 10° NNW 23:04:10 72° ENE 23:09:45 10° SSE
Cosmos 1092 Rocket 4.1 22:58:09 10° N 23:04:27 62° E 23:10:41 10° SSE
BREEZE-M R/B 4.1 23:03:02 10° WNW 23:06:38 53° SW 23:15:10 10° SE
Cosmos 1898 Rocket 3.5 23:04:10 10° NNW 23:09:26 89° ENE 23:14:37 10° SSE
Cosmos 1980 Rocket 2.6 23:04:12 10° N 23:09:30 39° ENE 23:14:44 10° SE
SMAP 3.2 23:07:45 10° SSE 23:12:16 54° ENE 23:16:48 10° N
GPS 2-04 Rocket1 3.4 23:09:32 10° W 23:13:33 55° S 23:17:35 10° ESE
Cosmos 1602 3.7 23:10:03 10° N 23:13:55 71° E 23:17:47 10° SSE
CORIOLIS 4.3 23:09:45 10° SSE 23:14:57 53° ENE 23:20:13 10° N
FengYun 1-2 T 4.2 23:10:35 10° SSE 23:16:10 78° ENE 23:21:43 10° N
Cosmos 1743 Rocket 4.1 23:12:43 10° NNW 23:17:01 64° W 23:21:17 10° S
Cosmos 2369 3.8 23:11:23 10° NNW 23:17:03 59° ENE 23:22:40 10° SE
ISS -2.5 23:14:30 10° NNW 23:17:23 25° NNE 23:20:15 10° E
CZ-4C R/B 3.4 23:13:05 10° NNW 23:20:02 41° NE 23:27:55 10° ESE
Meteor 2-21 4.4 23:14:35 10° N 23:20:36 62° E 23:26:33 10° SSE
Cosmos 2082 Rocket 2.4 23:16:34 10° SSW 23:22:15 81° WNW 23:27:57 10° NNE
Cosmos 1939 Rocket 2.9 23:19:23 10° SSE 23:23:29 82° E 23:27:35 10° N
SL-16 R/B 3.7 23:20:39 10° NNE 23:23:50 15° NE 23:27:00 10° E
Cosmos 2279 Rocket 4.1 23:18:49 10° SSE 23:24:48 52° E 23:30:47 10° NNE
Okean O Rocket 3.0 23:22:04 10° ESE 23:25:07 19° ENE 23:28:11 10° NNE
Cosmos 1328 Rocket 4.2 23:21:31 10° SSE 23:25:31 34° E 23:29:33 10° NNE
Cosmos 1627 Rocket 4.4 23:21:25 10° N 23:27:35 81° E 23:33:41 10° S
Cosmos 1666 Rocket 4.0 23:24:12 10° N 23:28:22 39° E 23:32:28 10° SSE
ARGOS 4.0 23:26:32 10° ESE 23:30:57 27° ENE 23:35:23 10° NNE
Cosmos 44 Rocket 4.5 23:27:37 10° N 23:31:23 22° NE 23:34:45 11° E
Cosmos 1500 3.0 23:28:47 10° N 23:32:31 76° E 23:36:13 10° S
Cosmos 2208 Rocket 4.2 23:27:18 10° S 23:32:34 58° ESE 23:37:54 10° NNE
Cosmos 841 Rocket 4.2 23:29:04 10° SW 23:34:05 53° WNW 23:39:08 10° N
CZ-4B DEB 4.2 23:30:39 10° SSE 23:36:08 70° ENE 23:41:36 10° N
Cosmos 1782 3.6 23:32:13 10° SSW 23:36:08 55° W 23:40:03 10° N
CZ-2D R/B 3.4 23:32:51 10° SSE 23:36:32 49° ENE 23:40:14 10° N
Meteor 1-14 Rocket 4.4 23:31:16 10° N 23:37:03 55° ENE 23:42:52 10° SSE
CZ-2C R/B 4.3 23:32:55 10° S 23:37:35 42° W 23:42:07 10° NNW
MOS 1-B 4.5 23:32:12 10° SE 23:37:45 52° ENE 23:43:20 10° N
Cosmos 2278 3.9 23:34:39 10° NNW 23:40:12 50° ENE 23:45:42 10° SE
ATLAS CENTAUR R/B 4.5 23:31:31 10° WSW 23:40:48 32° NW 23:45:11 10° NNE
H-2A R/B 2.1 23:35:55 10° SSE 23:40:56 53° ENE 23:45:51 10° N
Meteor 2-14 Rocket 4.5 23:35:26 10° N 23:41:33 87° W 23:47:36 10° S
Cosmos 1634 Rocket 4.5 23:38:33 10° SSW 23:44:49 66° W 23:51:08 10° N
SKYMED 2 3.8 23:41:14 10° NNE 23:45:25 47° E 23:49:35 10° S
Cosmos 1937 Rocket 4.2 23:40:31 10° NNW 23:45:44 59° WSW 23:50:55 10° S
USA 267 4.2 23:42:02 10° NNE 23:48:01 40° NNW 23:53:59 10° W
Sich 1 3.7 23:44:29 10° NNW 23:48:44 59° W 23:52:59 10° S
Cosmos 372 Rocket 4.0 23:44:27 10° NNW 23:49:43 88° WSW 23:54:58 10° SSE
Cosmos 1900 4.5 23:45:32 10° SW 23:50:22 73° WNW 23:55:10 11° NNE
Cosmos 2026 Rocket 4.4 23:45:30 10° NNW 23:51:33 66° W 23:57:31 10° S
Cosmos 1125 Rocket 4.4 23:48:04 10° N 23:52:27 26° ENE 23:56:49 10° ESE
deb Chang Zheng 4 3.8 23:51:17 10° SE 23:55:21 43° ENE 23:59:27 10° N
APEX 3.2 23:52:15 10° S 23:56:20 54° ESE 23:58:03 27° NE
